Location: ???????
(55.4362°N, 38.1183°E)
Time: 02:16:03
(UTC+00:00)

Cosmos 1464 Rocket - Pass Details

Date: 17 June 2021
Orbit: 953 x 1001 km, 82.9° (Epoch: 26 July)

Event Time Altitude Azimuth Distance (km) Brightness Sun altitude
Rises 21:03:04 0° 347° (NNW) 3,715 9.1 -11.0°
Reaches altitude 10° 21:05:37 10° 344° (NNW) 2,768 7.9 -11.0°
Maximum altitude 21:11:51 60° 266° (W) 1,138 4.4 -11.1°
Enters shadow 21:17:23 13° 190° (S) 2,519 5.5 -11.1°
